This is the latest recevied weather packets stored in our database for station/object KD2RHT-13. If no packets are shown the sender has not sent any weather packets the latest 10 day(s).
| Time | Temp. | Humidity | Pressure | Rain* | Wind** | Luminosity | Snow |
|---|---|---|---|---|---|---|---|
| 1777494188 | 13.33° C | 99% | 1009.7 hPa | 4.32 mm | - | 40 W/m² | - |
| 1777493885 | 13.89° C | 99% | 1009.7 hPa | 4.32 mm | - | 26 W/m² | - |
| 1777493583 | 13.89° C | 98% | 1009.7 hPa | 10.92 mm | - | 26 W/m² | - |
| 1777493281 | 13.89° C | 97% | 1009.4 hPa | 11.94 mm | - | 34 W/m² | - |
| 1777492976 | 14.44° C | 95% | 1009.7 hPa | 7.87 mm | - | 39 W/m² | - |
| 1777492673 | 14.44° C | 93% | 1009.4 hPa | 4.32 mm | - | 35 W/m² | - |
| 1777492373 | 15° C | 91% | 1009.4 hPa | 3.05 mm | - | 38 W/m² | - |
| 1777492070 | 15° C | 89% | 1009.4 hPa | 3.05 mm | - | 53 W/m² | - |
| 1777491767 | 15.56° C | 86% | 1009.4 hPa | 3.05 mm | - | 39 W/m² | - |
| 1777491464 | 16.11° C | 83% | 1009.4 hPa | 1.78 mm | - | 40 W/m² | - |
| 1777491161 | 16.11° C | 81% | 1009.4 hPa | 0 mm | - | 43 W/m² | - |
| 1777490857 | 16.11° C | 80% | 1009.7 hPa | 0 mm | - | 36 W/m² | - |
| 1777490553 | 16.67° C | 79% | 1009.7 hPa | 0 mm | - | 55 W/m² | - |
| 1777490250 | 16.67° C | 78% | 1010 hPa | 0 mm | - | 52 W/m² | - |
| 1777489947 | 16.67° C | 79% | 1010 hPa | 0 mm | - | 69 W/m² | - |
| 1777489645 | 16.67° C | 79% | 1010 hPa | 0 mm | - | 83 W/m² | - |
| 1777489341 | 16.67° C | 78% | 1009.7 hPa | 0 mm | - | 81 W/m² | - |
| 1777489039 | 16.67° C | 79% | 1010 hPa | 0 mm | - | 80 W/m² | - |
| 1777488735 | 16.67° C | 79% | 1010 hPa | 0 mm | - | 84 W/m² | - |
| 1777488432 | 16.67° C | 78% | 1010.4 hPa | 0 mm | - | 118 W/m² | - |
| 1777488131 | 16.67° C | 78% | 1010.4 hPa | 0 mm | - | 108 W/m² | - |
| 1777487829 | 16.67° C | 79% | 1010.4 hPa | 0 mm | - | 111 W/m² | - |
| 1777487526 | 16.67° C | 79% | 1010.4 hPa | 0 mm | - | 116 W/m² | - |
| 1777487223 | 16.11° C | 80% | 1010 hPa | 0 mm | - | 162 W/m² | - |
| 1777486919 | 16.11° C | 80% | 1010.4 hPa | 0 mm | - | 104 W/m² | - |
* Rain latest hour (hover to see other rain measurements)
** Current wind speed in m/s (hover to see current wind gust speed)